Location: Trout Lake
(45.9980°N, 121.5270°W)
Time: 19:05:40
(UTC-08:00)

Cosmos 1271 Rocket - Pass Details

Date: 06 December 2023
Orbit: 477 x 517 km, 81.2° (Epoch: 22 February)

Event Time Altitude Azimuth Distance (km) Brightness Sun altitude
Rises 18:17:16 0° 352° (N) 2,654 6.3 -19.4°
Reaches altitude 10° 18:19:26 10° 355° (N) 1,765 5.3 -19.7°
Enters shadow 18:22:52 59° 41° (NE) 610 2.7 -20.3°
Exits shadow 18:27:14 - 161° (SSE) 1,797 5.3 -21.1°
Sets 18:29:17 0° 164° (SSE) 2,640 6.2 -21.4°
